sim
Sign-in with your pilot id or email,
or register
Callsign
Passwort

Schedule Details

Flight Number: RYR8968 (3)
Departure: Athens Eleftherios Venizelos (LGAV) at 19:25
Arrival: Thessaloniki International Airport (LGTS) at 20:25
Route: Ryanair Passenger Schedule. Enter filed route here before submitting Pirep.

Weather Information
Getting current METAR information for LGAV 172320Z 00000KT 9999 FEW040 21/12 Q1015 NOSIG
Getting current METAR information for LGTS 172250Z 11004KT 9999 FEW025 21/16 Q1015 NOSIG

Schedule Frequency

Route Map